Home > Weather > Ibbenbüren > Past weeks

Flag for Germany Past Weather in Ibbenbüren, North Rhine-Westphalia, Germany — Yesterday and Last 2 Weeks

Now
75 °F

Partly cloudy.


Feels Like: 77 °F
Forecast: 63 / 85 °F
Wind: 2 mph from North

Location: Muenster / Osnabrueck

Current Time: Aug 27, 2016 at 10:43:44 PM

Latest Report: Aug 27, 2016 at 10:20 PM


Visibility: N/A

Pressure: 29.95 "Hg

Humidity: 69%

Dew Point: 64 °F

Location of IbbenbürenLocation

Past Weather in Ibbenbüren — Graph

°F

Ibbenbüren Temperature Yesterday

Maximum temperature yesterday: 88 °F (at 3:20 PM)
Minimum temperature yesterday: 64 °F (at 1:20 AM)
Average temperature yesterday: 76 °F

High & Low Weather Summary for the Past Weeks

 TemperatureHumidityPressure
High90 °F (Aug 25, 4:20 PM)100% (Aug 14, 1:20 AM)30.33 "Hg (Aug 14, 1:20 AM)
Low46 °F (Aug 17, 6:50 AM)29% (Aug 25, 5:20 PM)29.77 "Hg (Aug 19, 5:20 PM)
Average66 °F72%30.07 "Hg
* Reported Aug 12 9:20 PM — Aug 27 9:20 PM, Ibbenbüren, Weather by CustomWeather, © 2016

Note: Actual official high and low records may vary slightly from our data, if they occured in-between our weather recording intervals... More about our weather records

Advertising

Ibbenbüren Weather History for the Previous 24 Hours

Scroll right to see more
 ConditionsComfort  
Time TempWeatherWind HumidityBarometerVisibility
9:20 PM
Sat, Aug 27
77 °FPassing clouds.3 mph65%29.98 "HgN/A
8:50 PM77 °FPassing clouds.5 mph65%29.98 "HgN/A
8:20 PM79 °FBroken clouds.3 mph61%29.98 "HgN/A
7:50 PM81 °FBroken clouds.3 mph62%29.98 "HgN/A
7:20 PM81 °FPartly sunny.5 mph62%29.98 "HgN/A
6:50 PM82 °FPartly sunny.5 mph58%29.98 "HgN/A
6:20 PM82 °FPartly sunny.6 mph55%30.01 "HgN/A
5:50 PM84 °FScattered clouds.6 mph55%30.01 "HgN/A
5:20 PM84 °FScattered clouds.9 mph55%30.01 "HgN/A
4:50 PM82 °FScattered clouds.12 mph55%30.04 "HgN/A
4:20 PM82 °FPassing clouds.9 mph58%30.04 "HgN/A
3:50 PM82 °FPassing clouds.7 mph55%30.04 "HgN/A
3:20 PM82 °FPassing clouds.8 mph55%30.07 "HgN/A
2:50 PM81 °FPassing clouds.7 mph58%30.07 "HgN/A
2:20 PM81 °FPassing clouds.9 mph58%30.07 "HgN/A
1:50 PM79 °FSunny.7 mph58%30.07 "Hg10 mi
1:20 PM79 °FPassing clouds.10 mph58%30.09 "HgN/A
12:50 PM77 °FPassing clouds.9 mph61%30.09 "HgN/A
12:20 PM77 °FPassing clouds.9 mph57%30.09 "HgN/A
11:50 AM75 °FPassing clouds.8 mph61%30.09 "HgN/A
11:20 AM73 °FPassing clouds.8 mph61%30.12 "HgN/A
10:50 AM72 °FPassing clouds.8 mph65%30.12 "HgN/A
10:20 AM72 °FPassing clouds.8 mph65%30.12 "HgN/A
9:50 AM70 °FPassing clouds.7 mph69%30.12 "HgN/A
9:20 AM68 °FSunny.6 mph73%30.12 "Hg10 mi
8:50 AM66 °FPassing clouds.9 mph83%30.12 "HgN/A
8:20 AM66 °FPassing clouds.6 mph78%30.12 "HgN/A
7:50 AM64 °FPassing clouds.3 mph88%30.12 "HgN/A
7:20 AM63 °FPassing clouds.5 mph94%30.12 "HgN/A
6:50 AM63 °FPassing clouds.6 mph94%30.12 "HgN/A
6:20 AM63 °FPartly cloudy.6 mph88%30.12 "HgN/A
5:50 AM63 °FPartly cloudy.5 mph88%30.12 "HgN/A
5:20 AM63 °FPassing clouds.5 mph94%30.12 "HgN/A
4:50 AM64 °FPassing clouds.7 mph88%30.12 "HgN/A
4:20 AM64 °FPassing clouds.6 mph83%30.12 "HgN/A
3:50 AM66 °FPassing clouds.6 mph83%30.12 "HgN/A
3:20 AM66 °FPassing clouds.5 mph83%30.12 "HgN/A
2:50 AM66 °FPassing clouds.6 mph83%30.12 "HgN/A
2:20 AM66 °FClear.7 mph88%30.12 "Hg10 mi
1:50 AM68 °FClear.6 mph83%30.12 "Hg10 mi
1:20 AM66 °FPassing clouds.3 mph83%30.09 "HgN/A
12:50 AM68 °FPassing clouds.6 mph78%30.09 "HgN/A
12:20 AM68 °FPassing clouds.6 mph78%30.09 "HgN/A
11:50 PM
Fri, Aug 26
70 °FClear.8 mph73%30.09 "Hg10 mi
11:20 PM72 °FClear.8 mph69%30.09 "Hg10 mi
10:50 PM72 °FClear.8 mph73%30.09 "Hg10 mi
10:20 PM73 °FClear.9 mph69%30.07 "Hg10 mi
Weather by CustomWeather, © 2016

See weather overviewHow to use our weather pages